Weather History for PASX - October, 2014

Change the Weather History Date:

Saturday, October 25, 2014

  Actual Average (PANC) Record (PANC)
Temperature  
Mean Temperature 24 °F 30 °F  
Max Temperature 37 °F 36 °F 51 °F (1951)
Min Temperature 12 °F 24 °F 0 °F (1970)
Degree Days  
Heating Degree Days 40    
Month to date heating degree days  
Since 1 July heating degree days  
Cooling Degree Days 0    
Month to date cooling degree days  
Year to date cooling degree days  
Moisture  
Dew Point 17 °F    
Average Humidity 79    
Maximum Humidity 100    
Minimum Humidity 52    
Precipitation  
Precipitation 0.00 in 0.04 in 0.79 in (1952)
Month to date precipitation 1.76  
Year to date precipitation 14.04  
Snow  
Snow 0.00 in 0.30 in 6.70 in (1976)
Month to date snowfall 5.9  
Since 1 July snowfall 6.3  
Since 1 September snowfall 6.3  
Snow Depth -    
Sea Level Pressure  
Sea Level Pressure 29.87 in    
Wind  
Wind Speed 1 mph (ENE)    
Max Wind Speed 9 mph    
Max Gust Speed -    
Visibility 10 miles    
Events      
T = Trace of Precipitation, MM = Missing Value Source: NWS Daily Summary

Daily Weather History Graph

Daily Weather History Graph

Search for Another Location

Airport or City:

Trip Planner

Search our weather history database for the weather conditions in past years. The results will help you decide how hot, cold, wet, or windy it might be!

Date:

Astronomy

Oct. 25, 2014 Rise Set
Actual Time 9:10 AM AKDT 6:24 PM AKDT
Civil Twilight 8:26 AM AKDT 7:08 PM AKDT
Nautical Twilight 7:36 AM AKDT 7:58 PM AKDT
Astronomical Twilight 6:47 AM AKDT 8:46 PM AKDT
Moon 11:23 AM AKDT (10/25) 7:28 PM AKDT (10/25)
Length of Visible Light 10h 42m
Length of Day
9h 13m
Waxing Crescent, 4% of the Moon is Illuminated
Oct 25
Waxing Crescent
Oct 30
First Quarter
Nov 6
Full
Nov 14
Last Quarter
Nov 22
New

Hourly Weather History & Observations

Time (AKDT) Temp. Windchill Dew Point Humidity Pressure Visibility Wind Dir Wind Speed Gust Speed Precip Events Conditions
12:16 AM 24.8 °F - 19.4 °F 80% 29.91 in 10.0 mi Calm Calm - N/A   Clear
12:36 AM 24.8 °F - 19.4 °F 80% 29.91 in 10.0 mi Calm Calm - N/A   Clear
12:56 AM 23.0 °F - 19.4 °F 86% 29.91 in 10.0 mi Calm Calm - N/A   Clear
1:16 AM 23.0 °F - 17.6 °F 80% 29.91 in 10.0 mi Calm Calm - N/A   Clear
1:36 AM 21.2 °F - 17.6 °F 86% 29.91 in 10.0 mi Calm Calm - N/A   Clear
1:56 AM 21.2 °F - 15.8 °F 80% 29.91 in 10.0 mi Calm Calm - N/A   Clear
2:16 AM 21.2 °F - 17.6 °F 86% 29.91 in 10.0 mi Calm Calm - N/A   Clear
2:36 AM 19.4 °F - 17.6 °F 93% 29.91 in 10.0 mi Calm Calm - N/A   Clear
2:56 AM 19.4 °F - 14.0 °F 80% 29.91 in 10.0 mi Calm Calm - N/A   Clear
3:16 AM 17.6 °F - 15.8 °F 93% 29.91 in 10.0 mi Calm Calm - N/A   Clear
3:36 AM 17.6 °F - 14.0 °F 86% 29.91 in 10.0 mi Calm Calm - N/A   Clear
3:56 AM 17.6 °F - 14.0 °F 86% 29.92 in 10.0 mi Calm Calm - N/A   Clear
4:16 AM 17.6 °F - 14.0 °F 86% 29.91 in 10.0 mi Calm Calm - N/A   Clear
4:36 AM 15.8 °F - 10.4 °F 79% 29.91 in 10.0 mi Calm Calm - N/A   Clear
4:56 AM 15.8 °F - 12.2 °F 86% 29.91 in 10.0 mi Calm Calm - N/A   Clear
5:16 AM 15.8 °F - 12.2 °F 86% 29.91 in 10.0 mi Calm Calm - N/A   Clear
5:36 AM 14.0 °F - 10.4 °F 86% 29.91 in 10.0 mi Calm Calm - N/A   Clear
5:56 AM 15.8 °F - 12.2 °F 86% 29.90 in 10.0 mi Calm Calm - N/A   Clear
6:16 AM 14.0 °F 8.2 °F 10.4 °F 86% 29.91 in 10.0 mi East 3.5 mph - N/A   Clear
6:36 AM 15.8 °F 10.2 °F 12.2 °F 86% 29.91 in 10.0 mi ENE 3.5 mph - N/A   Clear
6:56 AM 14.0 °F - 10.4 °F 86% 29.91 in 10.0 mi Calm Calm - N/A   Clear
7:16 AM 15.8 °F 8.6 °F 15.8 °F 100% 29.91 in 10.0 mi ENE 4.6 mph - N/A   Clear
7:36 AM 14.0 °F 6.5 °F 10.4 °F 86% 29.91 in 10.0 mi East 4.6 mph - N/A   Clear
7:56 AM 15.8 °F 8.6 °F 12.2 °F 86% 29.90 in 10.0 mi East 4.6 mph - N/A   Clear
8:16 AM 15.8 °F 8.6 °F 12.2 °F 86% 29.90 in 10.0 mi ENE 4.6 mph - N/A   Clear
8:36 AM 15.8 °F - 12.2 °F 86% 29.90 in 10.0 mi Calm Calm - N/A   Clear
8:56 AM 15.8 °F 10.2 °F 12.2 °F 86% 29.90 in 10.0 mi ENE 3.5 mph - N/A   Clear
9:16 AM 14.0 °F 8.2 °F 8.6 °F 79% 29.90 in 10.0 mi East 3.5 mph - N/A   Clear
9:36 AM 12.2 °F 6.1 °F 8.6 °F 85% 29.90 in 10.0 mi ENE 3.5 mph - N/A   Clear
9:56 AM 14.0 °F 6.5 °F 10.4 °F 86% 29.89 in 10.0 mi East 4.6 mph - N/A   Clear
10:16 AM 15.8 °F 8.6 °F 12.2 °F 86% 29.89 in 10.0 mi East 4.6 mph - N/A   Clear
10:36 AM 17.6 °F 10.7 °F 15.8 °F 93% 29.89 in 10.0 mi ENE 4.6 mph - N/A   Clear
10:56 AM 19.4 °F 14.3 °F 15.8 °F 86% 29.88 in 10.0 mi East 3.5 mph - N/A   Clear
11:16 AM 19.4 °F 14.3 °F 17.6 °F 93% 29.88 in 10.0 mi East 3.5 mph - N/A   Clear
11:36 AM 21.2 °F 14.9 °F 17.6 °F 86% 29.88 in 10.0 mi ENE 4.6 mph - N/A   Clear
11:56 AM 21.2 °F 16.4 °F 19.4 °F 93% 29.88 in 10.0 mi ENE 3.5 mph - N/A   Clear
12:16 PM 23.0 °F 18.4 °F 19.4 °F 86% 29.88 in 10.0 mi East 3.5 mph - N/A   Clear
12:36 PM 26.6 °F - 21.2 °F 80% 29.87 in 10.0 mi Calm Calm - N/A   Clear
12:56 PM 28.4 °F - 24.8 °F 86% 29.87 in 10.0 mi Calm Calm - N/A   Clear
1:16 PM 30.2 °F - 26.6 °F 86% 29.87 in 10.0 mi Calm Calm - N/A   Clear
1:36 PM 32.0 °F - 26.6 °F 80% 29.87 in 10.0 mi Calm Calm - N/A   Clear
1:56 PM 35.6 °F - 26.6 °F 70% 29.87 in 10.0 mi Calm Calm - N/A   Clear
2:16 PM 37.4 °F - 26.6 °F 65% 29.86 in 10.0 mi Calm Calm - N/A   Clear
2:36 PM 37.4 °F 34.9 °F 26.6 °F 65% 29.85 in 10.0 mi East 3.5 mph - N/A   Clear
2:56 PM 37.4 °F - 26.6 °F 65% 29.85 in 10.0 mi Calm Calm - N/A   Clear
3:16 PM 37.4 °F 34.9 °F 24.8 °F 60% 29.84 in 10.0 mi NNW 3.5 mph - N/A   Clear
3:36 PM 37.4 °F 34.9 °F 21.2 °F 52% 29.84 in 10.0 mi NNW 3.5 mph - N/A   Clear
3:56 PM 37.4 °F 34.9 °F 21.2 °F 52% 29.84 in 10.0 mi NE 3.5 mph - N/A   Clear
4:16 PM 37.4 °F - 21.2 °F 52% 29.83 in 10.0 mi Calm Calm - N/A   Clear
4:36 PM 37.4 °F - 21.2 °F 52% 29.83 in 10.0 mi Calm Calm - N/A   Clear
4:56 PM 37.4 °F - 21.2 °F 52% 29.83 in 10.0 mi Calm Calm - N/A   Clear
5:16 PM 37.4 °F - 21.2 °F 52% 29.82 in 10.0 mi Calm Calm - N/A   Clear
5:36 PM 33.8 °F - 21.2 °F 60% 29.82 in 10.0 mi Calm Calm - N/A   Clear
5:56 PM 33.8 °F - 19.4 °F 56% 29.82 in 10.0 mi Calm Calm - N/A   Clear
6:16 PM 28.4 °F - 19.4 °F 69% 29.82 in 10.0 mi Calm Calm - N/A   Clear
6:36 PM 28.4 °F - 19.4 °F 69% 29.82 in 10.0 mi Calm Calm - N/A   Clear
6:56 PM 26.6 °F - 19.4 °F 74% 29.82 in 10.0 mi Calm Calm - N/A   Clear
7:16 PM 26.6 °F - 19.4 °F 74% 29.82 in 10.0 mi Calm Calm - N/A   Clear
7:36 PM 24.8 °F 20.5 °F 17.6 °F 74% 29.82 in 10.0 mi East 3.5 mph - N/A   Clear
7:56 PM 26.6 °F - 17.6 °F 69% 29.82 in 10.0 mi Calm Calm - N/A   Clear
8:16 PM 21.2 °F - 15.8 °F 80% 29.82 in 10.0 mi Calm Calm - N/A   Clear
8:36 PM 21.2 °F - 15.8 °F 80% 29.81 in 10.0 mi Calm Calm - N/A   Clear
8:56 PM 21.2 °F - 15.8 °F 80% 29.81 in 10.0 mi Calm Calm - N/A   Clear
9:16 PM 21.2 °F - 15.8 °F 80% 29.81 in 10.0 mi Calm Calm - N/A   Clear
9:36 PM 19.4 °F 14.3 °F 14.0 °F 80% 29.82 in 10.0 mi East 3.5 mph - N/A   Clear
9:56 PM 19.4 °F - 15.8 °F 86% 29.82 in 10.0 mi Calm Calm - N/A   Clear
10:16 PM 19.4 °F 8.6 °F 14.0 °F 80% 29.80 in 10.0 mi East 9.2 mph - N/A   Mostly Cloudy
10:36 PM 21.2 °F - 17.6 °F 86% 29.80 in 10.0 mi Calm Calm - N/A   Mostly Cloudy
10:56 PM 21.2 °F - 15.8 °F 80% 29.82 in 10.0 mi Calm Calm - N/A   Partly Cloudy
11:16 PM 19.4 °F 10.4 °F 15.8 °F 86% 29.81 in 10.0 mi East 6.9 mph - N/A   Partly Cloudy
11:36 PM 21.2 °F - 17.6 °F 86% 29.81 in 10.0 mi Calm Calm - N/A   Partly Cloudy
11:56 PM 21.2 °F 16.4 °F 17.6 °F 86% 29.81 in 10.0 mi ENE 3.5 mph - N/A   Scattered Clouds